Regional Weather Roundup
Issued by NWS

Home | Current Version | Previous Version | Graphics & Text | Print | Product List | Glossary On
Versions: 1 2 3 4 5 6 7 8 9 10 11 12 13 14 15 16 17 18 19 20 21 22 23 24 25 26 27 28 29 30 31 32 33 34 35 36 37 38 39 40 41 42 43 44 45 46 47 48 49 50
000
ASUS45 KBOI 300410
RWRID
WEATHER ROUNDUP FOR IDAHO
NATIONAL WEATHER SERVICE BOISE ID
1000 PM MDT TUE JUL 29 2014

NOTE: "FAIR" INDICATES FEW OR NO CLOUDS BELOW 12000 FEET
WITH NO SIGNIFICANT WEATHER AND/OR OBSTRUCTIONS TO VISIBILITY

IDZ012-014-300500-
SOUTHWEST IDAHO


CITY           SKY/WX    TMP DP  RH WIND       PRES   REMARKS
BOISE          CLOUDY    85  47  26 E3        30.06R
CALDWELL       CLOUDY    79  46  31 N10       30.05R
MOUNTAIN HOME  PTCLDY    75  58  55 E28       30.11R
$$

IDZ016-017-300500-
SOUTHCENTRAL IDAHO


CITY           SKY/WX    TMP DP  RH WIND       PRES   REMARKS
BURLEY         CLOUDY    70  54  56 N12G20    30.21R
JEROME         LGT RAIN  65  57  75 NE25G36   30.22R
TWIN FALLS     CLOUDY    72  53  51 NE15      30.24R
$$

IDZ019>023-300500-
SOUTHEAST IDAHO


CITY           SKY/WX    TMP DP  RH WIND       PRES   REMARKS
IDAHO FALLS    CLOUDY    65  56  72 N3        30.24R
POCATELLO      PTCLDY    68  54  60 N12       30.23R
REXBURG        CLOUDY    68  49  50 N9        30.25R
$$

IDZ006-010-011-018-031-032-300500-
CENTRAL IDAHO MOUNTAINS


CITY           SKY/WX    TMP DP  RH WIND       PRES   REMARKS
MCCALL         PTCLDY    75  33  21 N7        30.18R
HAILEY         CLOUDY    63  55  77 S6        30.32R
STANLEY          N/A     60  41  49 S3        30.32R
SALMON         CLOUDY    73  46  38 N6        30.16R
CHALLIS        CLOUDY    75  40  28 NW3       30.21R
$$

IDZ002-004-006-007-026-300500-
NORTHERN IDAHO


CITY           SKY/WX    TMP DP  RH WIND       PRES   REMARKS
LEWISTON       PTCLDY    96  32  10 W3        29.92R HX  90
LOWELL           N/A     73  58  59 N3        29.97R
COEUR D`ALENE  CLEAR     82  52  34 E5        29.99R
MULLAN PASS    PTCLDY    72  36  26 NW6       30.29R
$$



USA.gov is the U.S. government's official web portal to all federal, state and local government web resources and services.